• în Republica Moldova
  • Lista ţărilor
  • Pe 7 zile
  • Temperatura apei
  • Hartă satelitară
  • Meteo pe hartă
  • Widget-uri
  • user-avatar
    Intrare

    Meteo pe oră la Prutz

    Astăzi, 27 Mai, Duminică

    Timp Temperatura Precipitaţii Vânt Presiune Umiditate
    00:00 +11°C° 0,2 mm 1 m/s 637 mmHg 86%
    01:00 +12°C° 0 mm 1 m/s 637 mmHg 83%
    02:00 +11°C° 0,1 mm 1 m/s 637 mmHg 83%
    03:00 +11°C° 0,1 mm 1 m/s 637 mmHg 83%
    04:00 +11°C° 0,1 mm 1 m/s 637 mmHg 83%
    05:00 +12°C° 0,1 mm 1 m/s 637 mmHg 81%
    06:00 +13°C° 0,1 mm 1 m/s 638 mmHg 78%
    07:00 +14°C° 0 mm 1 m/s 638 mmHg 75%
    08:00 +16°C° 0,5 mm 1 m/s 638 mmHg 68%
    09:00 +18°C° 0,5 mm 1 m/s 639 mmHg 61%
    10:00 +18°C° 0,5 mm 0 m/s 639 mmHg 54%
    11:00 +20°C° 0,5 mm 1 m/s 639 mmHg 52%
    12:00 +21°C° 0,5 mm 1 m/s 639 mmHg 50%
    13:00 +21°C° 0 mm 1 m/s 639 mmHg 50%
    14:00 +21°C° 0,7 mm 1 m/s 639 mmHg 53%
    15:00 +20°C° 0,7 mm 1 m/s 638 mmHg 55%
    16:00 +20°C° 0,7 mm 1 m/s 638 mmHg 58%
    17:00 +19°C° 1,2 mm 1 m/s 638 mmHg 65%
    18:00 +18°C° 1,2 mm 1 m/s 637 mmHg 73%
    19:00 +14°C° 1,2 mm 0 m/s 637 mmHg 81%
    20:00 +14°C° 0,5 mm 1 m/s 637 mmHg 82%
    21:00 +13°C° 0,5 mm 1 m/s 637 mmHg 83%
    22:00 +12°C° 0,5 mm 1 m/s 636 mmHg 84%
    23:00 +12°C° 0,1 mm 2 m/s 636 mmHg 85%

    Mâine, 28 Mai, Luni

    Timp Temperatura Precipitaţii Vânt Presiune Umiditate
    00:00 +10°C° 0,1 mm 2 m/s 636 mmHg 86%
    01:00 +10°C° 0,1 mm 2 m/s 636 mmHg 86%
    02:00 +10°C° 0 mm 2 m/s 636 mmHg 86%
    03:00 +9°C° 0 mm 2 m/s 636 mmHg 85%
    04:00 +9°C° 0 mm 2 m/s 635 mmHg 85%
    05:00 +12°C° 0 mm 2 m/s 636 mmHg 80%
    06:00 +13°C° 0 mm 2 m/s 636 mmHg 75%
    07:00 +14°C° 0 mm 2 m/s 637 mmHg 70%
    08:00 +16°C° 0 mm 2 m/s 637 mmHg 63%
    09:00 +18°C° 0 mm 2 m/s 638 mmHg 55%
    10:00 +20°C° 0 mm 2 m/s 638 mmHg 48%
    11:00 +20°C° 0,4 mm 2 m/s 638 mmHg 48%
    12:00 +20°C° 0,4 mm 2 m/s 638 mmHg 48%
    13:00 +21°C° 0,4 mm 2 m/s 638 mmHg 48%
    14:00 +20°C° 0,8 mm 2 m/s 638 mmHg 53%
    15:00 +19°C° 0,8 mm 2 m/s 637 mmHg 58%
    16:00 +18°C° 0,8 mm 2 m/s 637 mmHg 62%
    17:00 +17°C° 0,3 mm 2 m/s 636 mmHg 68%
    18:00 +18°C° 0,3 mm 1 m/s 636 mmHg 73%
    19:00 +16°C° 0,3 mm 1 m/s 636 mmHg 78%
    20:00 +14°C° 0 mm 2 m/s 636 mmHg 81%
    21:00 +13°C° 0 mm 2 m/s 635 mmHg 84%
    22:00 +12°C° 0 mm 2 m/s 635 mmHg 88%
    23:00 +10°C° 0 mm 2 m/s 635 mmHg 88%

    Poimâine, 29 Mai, Marţi

    Timp Temperatura Precipitaţii Vânt Presiune Umiditate
    00:00 +10°C° 0 mm 2 m/s 635 mmHg 88%
    01:00 +10°C° 0 mm 2 m/s 635 mmHg 88%
    02:00 +10°C° 0 mm 2 m/s 635 mmHg 87%
    03:00 +9°C° 0 mm 2 m/s 635 mmHg 86%
    04:00 +9°C° 0 mm 2 m/s 634 mmHg 85%
    05:00 +10°C° 0 mm 2 m/s 635 mmHg 80%
    06:00 +13°C° 0 mm 2 m/s 635 mmHg 74%
    07:00 +14°C° 0 mm 1 m/s 636 mmHg 69%
    08:00 +16°C° 0 mm 1 m/s 636 mmHg 63%
    09:00 +18°C° 0 mm 1 m/s 636 mmHg 57%
    10:00 +20°C° 0 mm 1 m/s 637 mmHg 51%
    11:00 +20°C° 0,3 mm 1 m/s 637 mmHg 50%
    12:00 +21°C° 0,3 mm 1 m/s 636 mmHg 49%
    13:00 +21°C° 0,3 mm 2 m/s 636 mmHg 48%
    14:00 +20°C° 1,2 mm 2 m/s 636 mmHg 55%
    15:00 +19°C° 1,2 mm 2 m/s 635 mmHg 61%
    16:00 +18°C° 1,2 mm 2 m/s 635 mmHg 68%
    17:00 +17°C° 1,9 mm 2 m/s 634 mmHg 74%
    18:00 +16°C° 1,9 mm 1 m/s 634 mmHg 80%
    19:00 +15°C° 1,9 mm 1 m/s 634 mmHg 86%
    20:00 +14°C° 0,7 mm 1 m/s 634 mmHg 88%
    21:00 +13°C° 0,7 mm 1 m/s 634 mmHg 90%
    22:00 +12°C° 0,7 mm 1 m/s 634 mmHg 91%
    23:00 +12°C° 0,1 mm 1 m/s 633 mmHg 92%

    30 Mai, Miercuri

    Timp Temperatura Precipitaţii Vânt Presiune Umiditate
    00:00 +10°C° 0,1 mm 2 m/s 633 mmHg 92%
    01:00 +10°C° 0,1 mm 2 m/s 633 mmHg 92%
    02:00 +9°C° 0 mm 2 m/s 633 mmHg 92%
    03:00 +9°C° 0 mm 2 m/s 632 mmHg 91%
    04:00 +9°C° 0 mm 2 m/s 632 mmHg 91%
    05:00 +11°C° 0,1 mm 1 m/s 633 mmHg 86%
    06:00 +12°C° 0,1 mm 1 m/s 633 mmHg 82%
    07:00 +14°C° 0,1 mm 1 m/s 634 mmHg 77%
    08:00 +16°C° 0 mm 1 m/s 634 mmHg 68%
    09:00 +19°C° 0 mm 1 m/s 635 mmHg 59%
    10:00 +21°C° 0 mm 1 m/s 635 mmHg 50%
    11:00 +21°C° 0,6 mm 1 m/s 635 mmHg 50%
    12:00 +21°C° 0,6 mm 1 m/s 635 mmHg 50%
    13:00 +21°C° 0,6 mm 2 m/s 635 mmHg 50%
    14:00 +20°C° 1,1 mm 2 m/s 635 mmHg 53%
    15:00 +20°C° 1,1 mm 2 m/s 634 mmHg 56%
    16:00 +20°C° 1,1 mm 1 m/s 634 mmHg 59%
    17:00 +19°C° 1,1 mm 1 m/s 634 mmHg 67%
    18:00 +18°C° 1,1 mm 1 m/s 633 mmHg 74%
    19:00 +16°C° 1,1 mm 1 m/s 633 mmHg 82%
    20:00 +15°C° 1 mm 1 m/s 633 mmHg 84%
    21:00 +14°C° 1 mm 1 m/s 633 mmHg 87%
    22:00 +12°C° 1 mm 1 m/s 633 mmHg 89%
    23:00 +12°C° 0,3 mm 1 m/s 633 mmHg 90%

    31 Mai, Joi

    Timp Temperatura Precipitaţii Vânt Presiune Umiditate
    00:00 +10°C° 0,3 mm 2 m/s 632 mmHg 90%
    01:00 +10°C° 0,3 mm 2 m/s 632 mmHg 90%
    02:00 +9°C° 0,3 mm 2 m/s 632 mmHg 89%
    03:00 +9°C° 0,3 mm 2 m/s 632 mmHg 88%
    04:00 +8°C° 0,3 mm 2 m/s 631 mmHg 87%
    05:00 +11°C° 0,1 mm 1 m/s 632 mmHg 82%
    06:00 +13°C° 0,1 mm 1 m/s 633 mmHg 77%
    07:00 +14°C° 0,1 mm 1 m/s 633 mmHg 72%
    08:00 +16°C° 0,4 mm 1 m/s 634 mmHg 68%
    09:00 +18°C° 0,4 mm 1 m/s 634 mmHg 64%
    10:00 +19°C° 0,4 mm 1 m/s 634 mmHg 60%
    11:00 +20°C° 0,4 mm 1 m/s 634 mmHg 58%
    12:00 +21°C° 0,4 mm 1 m/s 634 mmHg 55%
    13:00 +21°C° 0,4 mm 1 m/s 634 mmHg 52%
    14:00 +21°C° 1,1 mm 1 m/s 634 mmHg 57%
    15:00 +19°C° 1,1 mm 2 m/s 634 mmHg 62%
    16:00 +18°C° 1,1 mm 2 m/s 633 mmHg 67%
    17:00 +17°C° 1,3 mm 2 m/s 633 mmHg 73%
    18:00 +16°C° 1,3 mm 1 m/s 633 mmHg 78%
    19:00 +15°C° 1,3 mm 1 m/s 633 mmHg 84%
    20:00 +14°C° 0,9 mm 1 m/s 633 mmHg 87%
    21:00 +13°C° 0,9 mm 1 m/s 633 mmHg 90%
    22:00 +12°C° 0,9 mm 1 m/s 633 mmHg 93%
    23:00 +12°C° 0,6 mm 1 m/s 632 mmHg 93%

    1 Iunie, Vineri

    Timp Temperatura Precipitaţii Vânt Presiune Umiditate
    00:00 +11°C° 0,6 mm 1 m/s 632 mmHg 93%
    01:00 +11°C° 0,6 mm 1 m/s 632 mmHg 93%
    02:00 +11°C° 0,8 mm 1 m/s 632 mmHg 94%
    03:00 +11°C° 0,8 mm 1 m/s 632 mmHg 95%
    04:00 +11°C° 0,8 mm 1 m/s 632 mmHg 96%
    05:00 +11°C° 0,6 mm 1 m/s 632 mmHg 94%
    06:00 +12°C° 0,6 mm 2 m/s 633 mmHg 93%
    07:00 +13°C° 0,6 mm 2 m/s 633 mmHg 91%
    08:00 +13°C° 1,7 mm 2 m/s 633 mmHg 91%
    09:00 +13°C° 1,7 mm 2 m/s 633 mmHg 91%
    10:00 +13°C° 1,7 mm 2 m/s 633 mmHg 91%
    11:00 +13°C° 2 mm 1 m/s 633 mmHg 91%
    12:00 +13°C° 2 mm 1 m/s 633 mmHg 91%
    13:00 +13°C° 2 mm 1 m/s 633 mmHg 91%
    14:00 +13°C° 1,2 mm 1 m/s 633 mmHg 90%
    15:00 +13°C° 1,2 mm 1 m/s 633 mmHg 89%
    16:00 +13°C° 1,2 mm 1 m/s 633 mmHg 88%
    17:00 +13°C° 0,6 mm 1 m/s 633 mmHg 90%
    18:00 +13°C° 0,6 mm 1 m/s 633 mmHg 91%
    19:00 +12°C° 0,6 mm 1 m/s 633 mmHg 93%
    20:00 +12°C° 0,5 mm 1 m/s 633 mmHg 94%
    21:00 +10°C° 0,5 mm 0 m/s 633 mmHg 95%
    22:00 +9°C° 0,5 mm 0 m/s 634 mmHg 96%
    23:00 +9°C° 0,4 mm 0 m/s 634 mmHg 96%
    Arată mai mult